Wind_Speed
10 8 10 9 12 14 15 16 16 15 15 14 13 10 12 15 14 12 8 6 3 1 4 9 8 6 5 4 4 1 2 3 3 4 5 6 8 9 11 13 14 15 16 16
15 18 15 11 14 20 16 17 14 12 12 10 9 8 9 12 14 11 11 8 4 3 2 5 5 5 3 2 3 3 2 2 3 5 7 7 7 8 10 12 13 15 17 18
19 19 20 16 20 20 15 12 12 11 10 7 10 9 9 9 10 11 10 8 6 1 1 2 3 2 1 1 2 3 4 4 2 8 9 10 12 13 15 17 18 20 24 27
21 28 24 19 21 21 15 14 13 11 7 4 7 9 9 7 7 9 9 7 5 4 4 3 6 8 5 3 2 4 6 3 4 12 11 14 16 19 21 24 25 26 26 26
26 33 27 22 25 19 16 14 14 10 7 8 5 5 6 5 3 6 9 11 3 8 9 9 8 8 9 7 3 4 8 7 11 14 17 19 21 23 28 30 33 36 34 34
27 27 26 23 20 17 17 14 12 10 10 10 7 5 3 1 2 1 5 9 6 11 12 10 9 9 7 7 10 9 15 17 18 19 23 26 27 29 32 35 39 40 40 38
23 26 24 20 16 17 18 14 12 11 10 7 7 8 6 2 3 6 6 6 2 7 9 13 11 9 9 11 15 17 18 22 24 25 28 27 27 31 34 38 40 43 44 46
25 23 23 15 17 21 18 15 13 12 6 3 5 4 3 1 4 4 8 8 9 4 5 11 16 17 18 16 18 22 25 27 32 33 31 29 34 41 39 39 43 40 43 45
19 26 23 16 21 21 19 16 12 8 4 3 2 2 4 2 2 4 5 11 13 6 8 15 17 18 19 19 21 25 31 36 39 42 45 48 48 46 44 45 43 42 42 45
18 20 21 18 20 20 15 15 9 6 6 7 7 6 2 4 7 12 10 5 13 10 13 17 21 24 25 27 30 33 37 41 44 47 49 49 50 48 49 50 48 45 44 45
20 26 21 19 24 24 19 16 13 11 9 10 11 11 12 10 13 14 14 11 12 11 15 20 24 27 30 33 36 38 42 45 47 48 48 48 48 50 52 55 54 51 49 47
21 22 21 25 27 26 20 19 16 16 16 18 17 13 11 14 12 16 14 13 14 16 21 25 31 32 35 40 43 46 48 48 48 47 48 51 52 55 57 57 57 56 53 50
15 29 21 24 29 28 21 19 19 20 19 16 14 8 10 15 18 17 12 15 17 21 25 31 37 37 40 44 47 50 49 51 52 52 52 54 55 56 57 57 57 58 58 55
20 24 25 25 26 26 22 19 18 17 16 13 13 15 19 23 22 18 17 18 22 27 33 37 39 42 46 49 51 49 49 48 50 52 53 55 56 58 59 61 62 61 60 57
22 22 29 27 23 20 20 22 21 19 18 17 20 22 22 24 20 19 20 24 30 35 37 40 44 47 49 49 47 47 48 50 52 55 57 58 59 60 61 60 60 58 57 55
27 35 32 26 26 25 23 22 22 21 22 25 24 19 18 18 19 20 22 27 33 38 39 42 45 45 43 45 45 47 51 53 54 55 56 56 57 54 54 56 57 56 57 57
30 41 36 34 31 24 25 24 25 24 23 22 21 19 19 23 22 22 25 31 37 41 46 47 45 43 44 45 47 50 52 52 54 54 56 55 54 53 52 52 53 53 47 47
14 26 23 20 21 25 20 22 23 22 18 19 22 22 22 24 29 29 32 41 44 46 45 44 44 44 44 46 48 49 51 53 54 55 54 52 53 53 52 53 49 46 49 49
13 12 14 20 22 24 23 20 19 17 20 23 25 26 28 27 27 31 39 45 47 46 44 43 43 44 46 47 48 51 52 52 52 51 50 53 52 50 49 45 46 44 45 45
17 19 20 22 22 20 16 15 17 22 25 27 27 30 32 33 33 39 42 44 44 42 43 43 44 46 46 47 50 50 50 50 48 47 48 53 48 47 44 46 44 45 42 36
21 21 20 21 23 23 21 20 22 28 30 31 31 33 38 39 38 41 41 40 42 43 42 44 46 46 46 49 48 48 49 46 46 48 50 51 44 46 50 45 44 40 36 34
23 25 25 25 28 30 30 33 35 37 35 35 37 40 41 40 41 40 39 41 41 41 44 44 45 46 48 47 47 48 47 45 45 48 47 47 43 46 44 43 40 38 36 33
29 30 30 32 36 35 35 33 34 37 38 40 41 40 37 39 37 38 40 40 40 42 42 43 45 47 46 46 46 46 45 44 45 47 45 44 42 43 40 41 39 38 35 34
31 29 30 30 31 30 34 36 37 39 42 43 39 36 39 38 38 40 39 40 40 41 43 43 45 43 44 44 44 44 42 43 43 43 42 40 40 38 38 38 38 37 33 32
27 28 30 31 33 37 39 39 39 40 36 35 36 39 39 39 40 38 39 40 40 42 42 43 41 41 43 43 43 42 43 41 41 40 38 37 35 35 33 32 34 34 34 34
28 31 34 38 39 40 39 38 35 36 37 39 42 40 39 39 38 39 40 39 40 41 42 42 41 42 42 42 41 41 41 40 39 37 36 33 31 32 30 29 31 36 34 35
Wind_Direction
192 175 176 162 149 160 161 146 141 128 110 103 97 88 86 84 76 67 60 50 34 73 118 126 122 112 131 136 106 82 47 41 17 358 339 342 344 338 332 326 323 317 313 305
196 179 174 156 150 154 163 154 136 121 112 108 107 104 97 94 65 67 47 26 12 307 209 150 160 158 179 157 175 207 245 280 316 320 319 322 314 311 321 323 321 318 316 312
200 186 169 164 156 159 164 158 152 144 132 90 88 140 136 116 76 56 32 14 1 297 284 192 195 184 189 317 284 270 264 276 281 11 357 346 339 333 333 333 330 327 324 320
191 189 168 162 163 165 165 159 158 157 142 121 80 112 142 131 81 45 21 2 3 40 46 56 98 94 79 58 2 309 318 313 331 346 349 345 348 339 333 326 324 321 317 313
166 166 168 170 174 167 160 162 175 183 204 158 127 114 120 135 97 41 8 1 31 87 80 73 78 80 77 59 53 57 11 357 351 348 338 334 333 329 326 323 320 320 317 313
183 174 174 174 172 173 167 166 167 167 168 163 161 150 118 91 198 147 1 355 111 110 98 71 40 13 12 15 358 337 332 336 334 324 326 326 322 320 319 316 314 311 306 301
168 175 182 180 167 170 175 177 176 174 170 162 186 204 187 341 320 252 330 327 254 110 32 18 9 351 333 344 344 336 322 325 320 314 311 308 307 309 310 312 308 305 300 300
176 178 190 193 178 175 176 184 194 188 192 158 162 164 179 108 350 267 255 278 262 173 22 354 348 346 343 335 327 323 326 320 319 317 318 312 315 317 312 309 305 301 299 297
205 175 191 192 177 181 184 191 199 209 226 224 254 101 127 8 113 312 272 251 231 237 315 344 337 327 316 311 312 308 311 314 317 319 320 319 316 312 309 309 305 300 297 296
183 196 200 199 198 195 197 207 210 237 262 277 296 340 332 331 341 335 345 267 228 262 342 329 322 318 317 317 314 309 309 311 314 314 313 311 308 305 305 305 302 299 295 291
193 199 209 213 210 219 203 220 228 245 272 293 307 323 325 316 322 323 325 330 336 317 308 314 311 307 309 308 307 308 311 313 312 310 307 303 302 303 304 303 301 298 296 292
201 204 211 212 209 212 217 224 239 256 274 285 302 315 302 306 314 315 310 314 312 304 299 302 305 303 302 305 310 314 312 311 310 308 307 307 305 303 301 299 299 298 296 291
241 194 204 210 210 213 212 232 248 263 271 287 296 295 320 319 306 303 289 295 294 296 296 293 296 298 300 305 308 309 308 309 308 305 304 303 301 300 299 298 298 297 295 293
242 187 203 211 216 220 226 235 241 257 277 274 302 298 305 310 307 302 296 290 291 292 294 296 295 298 301 304 306 305 304 306 305 304 302 301 301 299 298 298 298 296 294 292
238 217 198 210 215 216 223 231 238 254 272 283 293 296 293 299 297 296 291 289 290 288 291 296 298 300 301 303 304 306 307 307 307 306 305 304 305 304 302 301 300 299 296 294
233 212 207 192 210 212 228 234 244 259 269 277 285 292 292 293 291 285 285 289 292 296 297 298 302 303 304 305 306 308 310 308 306 305 306 306 306 306 305 305 304 301 298 296
234 217 191 180 198 219 233 241 251 262 270 287 295 296 299 292 292 279 294 305 302 302 303 305 307 307 309 308 309 309 307 307 309 310 310 311 311 311 312 311 309 310 305 305
267 205 197 195 208 226 237 248 257 266 278 297 301 286 298 308 288 275 285 303 307 304 304 304 307 308 307 308 309 308 310 312 314 314 315 317 316 315 313 312 313 311 307 311
177 199 219 219 229 243 248 255 273 278 287 291 290 291 289 297 297 292 284 294 302 305 304 305 306 306 309 309 310 312 314 315 316 316 318 320 317 317 318 317 318 313 319 317
195 206 218 224 233 242 259 267 276 288 290 290 291 294 299 299 295 297 299 303 302 301 304 306 307 309 310 312 312 314 315 317 316 317 319 322 321 323 324 322 318 318 319 324
213 221 234 241 247 258 264 266 285 281 287 291 293 298 301 295 296 302 306 303 301 303 305 308 308 309 311 312 315 316 317 317 317 318 320 323 321 323 321 322 323 322 327 323
229 233 234 240 249 257 265 264 280 284 287 291 297 295 297 297 301 305 301 299 303 305 306 306 308 311 312 314 316 318 319 317 317 321 322 324 320 322 323 325 324 324 326 328
229 238 245 248 252 256 265 272 277 281 287 294 294 297 297 301 303 300 301 304 303 303 305 309 310 311 313 315 317 318 319 318 319 321 321 323 322 322 327 327 326 326 331 329
229 232 241 257 266 259 265 272 278 285 288 289 293 293 299 302 301 302 301 300 303 305 308 309 310 312 313 316 317 319 319 321 323 325 327 325 323 323 326 325 327 331 338 337
237 246 254 259 262 263 268 275 282 287 288 289 294 300 302 301 300 299 301 304 305 305 307 308 310 312 315 317 318 320 322 324 326 328 328 328 326 329 330 332 330 334 337 340
256 259 261 265 269 273 276 279 281 284 289 297 301 300 299 298 299 301 302 301 302 305 307 310 312 316 317 318 321 321 325 327 328 326 326 327 326 329 333 337 338 335 337 338
Height
5923 5925 5925 5926 5929 5932 5935 5937 5938 5937 5938 5938 5937 5938 5937 5938 5938 5938 5938 5937 5937 5936 5934 5934 5933 5933 5933 5933 5933 5932 5932 5931 5930 5929 5928 5927 5926 5925 5924 5923 5923 5922 5921 5919
5924 5924 5926 5928 5930 5933 5936 5937 5937 5938 5939 5940 5940 5940 5940 5940 5941 5940 5940 5939 5939 5938 5936 5935 5934 5933 5933 5933 5932 5932 5931 5931 5930 5928 5927 5926 5924 5923 5922 5920 5920 5918 5917 5915
5922 5925 5927 5929 5932 5935 5936 5938 5939 5940 5940 5941 5941 5941 5942 5943 5943 5942 5941 5941 5940 5938 5937 5936 5935 5934 5933 5933 5932 5931 5931 5931 5930 5928 5926 5925 5923 5922 5921 5918 5917 5915 5913 5911
5921 5924 5927 5930 5933 5935 5937 5938 5940 5941 5942 5943 5943 5944 5943 5945 5945 5944 5944 5943 5941 5940 5939 5938 5936 5935 5934 5932 5931 5931 5930 5929 5928 5925 5924 5922 5920 5918 5916 5914 5913 5911 5910 5908
5919 5922 5926 5930 5933 5936 5938 5939 5940 5941 5943 5944 5945 5946 5944 5945 5946 5946 5945 5943 5942 5942 5941 5940 5938 5937 5934 5932 5931 5930 5929 5928 5926 5924 5922 5920 5918 5915 5912 5911 5909 5906 5903 5901
5920 5923 5926 5929 5932 5935 5938 5939 5941 5942 5944 5945 5945 5947 5946 5946 5946 5946 5946 5945 5944 5942 5941 5940 5938 5936 5934 5932 5930 5929 5926 5924 5924 5921 5919 5917 5914 5912 5910 5907 5903 5900 5897 5895
5919 5923 5925 5928 5932 5934 5937 5939 5942 5945 5945 5946 5945 5946 5947 5946 5946 5946 5945 5945 5942 5941 5940 5939 5937 5936 5934 5930 5928 5926 5924 5922 5920 5919 5917 5915 5912 5909 5905 5902 5898 5894 5890 5886
5919 5923 5926 5928 5931 5934 5936 5939 5942 5944 5945 5945 5945 5947 5948 5947 5946 5946 5944 5943 5942 5940 5939 5938 5936 5934 5932 5930 5927 5923 5922 5919 5916 5913 5910 5908 5904 5899 5897 5894 5890 5886 5881 5877
5915 5919 5923 5927 5929 5933 5936 5939 5940 5942 5943 5944 5945 5947 5946 5945 5945 5944 5943 5941 5939 5938 5937 5935 5933 5931 5929 5926 5923 5920 5916 5912 5909 5904 5900 5896 5893 5890 5886 5881 5878 5875 5870 5866
5914 5918 5921 5925 5928 5931 5933 5937 5939 5940 5941 5942 5943 5943 5944 5943 5941 5940 5939 5939 5938 5935 5932 5930 5928 5926 5923 5920 5917 5915 5911 5906 5902 5897 5893 5888 5883 5878 5873 5870 5866 5862 5858 5853
5913 5916 5920 5923 5925 5929 5932 5934 5937 5938 5939 5939 5940 5940 5939 5939 5938 5936 5935 5934 5932 5929 5927 5925 5922 5920 5917 5915 5912 5909 5904 5898 5893 5886 5881 5876 5871 5865 5860 5855 5850 5847 5843 5838
5910 5914 5917 5920 5922 5926 5929 5932 5934 5935 5937 5937 5936 5937 5935 5935 5933 5932 5931 5930 5928 5925 5922 5920 5917 5914 5911 5907 5903 5898 5894 5887 5881 5876 5871 5865 5859 5853 5848 5842 5836 5832 5828 5825
5903 5908 5914 5917 5921 5923 5926 5929 5931 5932 5933 5934 5933 5934 5932 5931 5930 5928 5926 5925 5923 5921 5918 5915 5911 5907 5904 5900 5896 5890 5884 5877 5872 5866 5860 5854 5848 5842 5835 5829 5823 5816 5810 5808
5902 5906 5912 5914 5916 5920 5924 5926 5928 5929 5930 5931 5930 5929 5927 5925 5924 5922 5921 5920 5918 5915 5912 5909 5905 5901 5896 5891 5886 5880 5875 5869 5862 5856 5849 5842 5835 5828 5820 5813 5806 5799 5792 5787
5900 5903 5908 5910 5915 5918 5921 5923 5924 5925 5926 5926 5925 5924 5923 5920 5918 5917 5916 5914 5911 5908 5905 5902 5897 5892 5888 5883 5876 5870 5864 5857 5851 5843 5835 5828 5820 5812 5804 5796 5788 5781 5774 5768
5893 5895 5895 5903 5910 5914 5917 5919 5920 5921 5921 5921 5920 5918 5915 5914 5914 5912 5910 5908 5904 5901 5897 5893 5888 5883 5878 5873 5867 5860 5853 5846 5839 5831 5823 5815 5806 5797 5789 5781 5773 5764 5757 5751
5887 5887 5889 5892 5901 5908 5912 5914 5916 5917 5917 5915 5913 5912 5910 5908 5906 5904 5902 5899 5896 5892 5887 5883 5878 5873 5869 5863 5856 5850 5844 5835 5826 5818 5809 5800 5792 5783 5775 5766 5757 5749 5742 5735
5879 5880 5891 5896 5898 5903 5908 5910 5911 5911 5910 5909 5907 5905 5903 5901 5899 5896 5893 5890 5887 5883 5879 5873 5869 5864 5859 5853 5847 5840 5831 5822 5813 5804 5794 5786 5778 5769 5761 5752 5744 5735 5728 5720
5885 5887 5891 5894 5898 5903 5905 5906 5907 5906 5906 5903 5901 5899 5898 5896 5893 5890 5887 5883 5878 5873 5869 5865 5860 5855 5849 5843 5836 5827 5819 5810 5801 5792 5784 5775 5766 5757 5748 5740 5733 5725 5717 5708
5885 5888 5891 5894 5896 5898 5899 5900 5900 5899 5899 5896 5895 5892 5890 5888 5885 5881 5877 5873 5868 5864 5860 5855 5849 5844 5839 5831 5824 5817 5809 5801 5792 5783 5774 5765 5754 5746 5738 5730 5723 5716 5707 5701
5884 5886 5889 5890 5891 5892 5894 5894 5893 5893 5893 5889 5887 5884 5882 5879 5875 5871 5867 5863 5859 5854 5849 5844 5838 5833 5827 5821 5814 5807 5799 5790 5782 5774 5765 5755 5745 5737 5728 5720 5713 5707 5701 5695
5879 5882 5884 5885 5886 5887 5887 5886 5886 5885 5883 5880 5878 5876 5874 5870 5866 5862 5858 5854 5850 5845 5840 5834 5829 5822 5816 5810 5804 5797 5789 5781 5773 5765 5756 5746 5737 5729 5720 5712 5705 5699 5693 5687
5873 5876 5877 5879 5878 5878 5878 5878 5877 5876 5875 5873 5871 5867 5864 5862 5859 5855 5850 5846 5841 5836 5831 5825 5819 5813 5807 5801 5795 5787 5780 5772 5765 5756 5747 5738 5729 5721 5713 5705 5699 5692 5686 5680
5864 5866 5869 5871 5870 5870 5870 5870 5869 5868 5865 5863 5862 5860 5857 5853 5849 5845 5841 5837 5832 5827 5821 5816 5810 5804 5798 5792 5785 5778 5770 5763 5756 5747 5739 5730 5723 5714 5707 5699 5692 5686 5681 5675
5857 5860 5861 5862 5863 5862 5862 5861 5860 5858 5856 5855 5853 5851 5847 5843 5840 5836 5832 5827 5822 5818 5813 5807 5801 5795 5789 5782 5775 5768 5761 5754 5747 5738 5731 5724 5717 5709 5702 5694 5687 5682 5675 5668
5850 5851 5852 5852 5853 5853 5853 5852 5852 5850 5848 5846 5844 5841 5838 5834 5831 5827 5823 5819 5814 5809 5803 5797 5791 5785 5779 5773 5766 5759 5752 5746 5739 5731 5725 5718 5712 5706 5698 5691 5684 5675 5670 5665